This is the latest recevied weather packets stored in our database for station/object KC1BRV. If no packets are shown the sender has not sent any weather packets the latest 10 day(s).
| Time | Temp. | Humidity | Pressure | Rain* | Wind** | Luminosity | Snow |
|---|---|---|---|---|---|---|---|
| 1788307416 | 15.56° C | 99% | 1019.6 hPa | 0 mm | - | 0 W/m² | - |
| 1788307111 | 15.56° C | 99% | 1019.6 hPa | 0 mm | - | 0 W/m² | - |
| 1788306810 | 15.56° C | 99% | 1019.6 hPa | 0 mm | - | 0 W/m² | - |
| 1788306505 | 15.56° C | 99% | 1019.5 hPa | 0 mm | - | 0 W/m² | - |
| 1788306220 | 15.56° C | 99% | 1019.5 hPa | 0 mm | - | 0 W/m² | - |
| 1788305895 | 15.56° C | 99% | 1019.4 hPa | 0 mm | - | 0 W/m² | - |
| 1788305591 | 15.56° C | 99% | 1019.3 hPa | 0 mm | - | 0 W/m² | - |
| 1788305287 | 15.56° C | 99% | 1019.2 hPa | 0 mm | - | 0 W/m² | - |
| 1788304981 | 15.56° C | 99% | 1019.2 hPa | 0 mm | - | 1 W/m² | - |
| 1788304677 | 15.56° C | 99% | 1019.2 hPa | 0 mm | - | 1 W/m² | - |
| 1788304374 | 15° C | 99% | 1019.3 hPa | 0 mm | - | 2 W/m² | - |
| 1788304069 | 15° C | 99% | 1019.3 hPa | 0 mm | - | 3 W/m² | - |
| 1788303768 | 15° C | 99% | 1019.3 hPa | 1.27 mm | - | 5 W/m² | - |
| 1788303464 | 15° C | 99% | 1019.1 hPa | 0 mm | - | 6 W/m² | - |
| 1788303158 | 15° C | 99% | 1019.5 hPa | 0 mm | - | 6 W/m² | - |
| 1788302854 | 15° C | 99% | 1019.2 hPa | 0 mm | - | 6 W/m² | - |
| 1788302550 | 15° C | 99% | 1019.4 hPa | 0 mm | - | 7 W/m² | - |
| 1788302246 | 15° C | 99% | 1019.4 hPa | 0 mm | - | 5 W/m² | - |
| 1788301940 | 15° C | 98% | 1019.3 hPa | 0 mm | - | 5 W/m² | - |
| 1788301637 | 15° C | 98% | 1019.4 hPa | 0 mm | - | 7 W/m² | - |
| 1788301333 | 15° C | 98% | 1019.3 hPa | 0 mm | - | 6 W/m² | - |
| 1788301028 | 15° C | 98% | 1019.3 hPa | 0 mm | - | 9 W/m² | - |
| 1788300724 | 15° C | 98% | 1019.5 hPa | 1.78 mm | - | 13 W/m² | - |
| 1788300423 | 15° C | 98% | 1019.3 hPa | 0 mm | - | 10 W/m² | - |
| 1788300124 | 15.56° C | 98% | 1019.3 hPa | 0 mm | - | 10 W/m² | - |
* Rain latest hour (hover to see other rain measurements)
** Current wind speed in m/s (hover to see current wind gust speed)